Regional Weather Roundup
Issued by NWS San Diego, CA

Home | Current Version | Previous Version | Text Only | Print | Product List | Glossary On
Versions: 1 2 3 4 5 6 7 8 9 10 11 12 13 14 15 16 17 18 19 20 21 22 23 24 25 26 27 28 29 30 31 32 33 34 35 36 37 38 39 40 41 42 43 44 45 46 47 48 49 50
000
ASUS46 KSGX 240111
RWRSGX

SAN DIEGO HOURLY WEATHER ROUNDUP
NATIONAL WEATHER SERVICE SAN DIEGO CA
600 PM PDT SAT JUL 23 2016

NOTE: "FAIR" INDICATES FEW OR NO CLOUDS BELOW 12,000 FEET WITH NO
SIGNIFICANT WEATHER AND/OR OBSTRUCTIONS TO VISIBILITY.

CAZ042-043-060-061-PZZ750-775-240200-

GREATER SAN DIEGO AREA

CITY           SKY/WX    TMP DP  RH WIND       PRES   REMARKS
LINDBERGH FLD  MOSUNNY   70  65  84 S13       29.83F
POINT LOMA       N/A     72  65  80 S14         N/A
NATIONAL CITY    N/A     76  68  77 SW10      29.83F
CHULA VISTA      N/A     76  68  76 W5        29.74F
IMPERIAL BEACH SUNNY     75  65  70 SW15      29.82F
BROWN FIELD    SUNNY     83  63  50 VRB5      29.82S
MIRAMAR MCAS   MOSUNNY   79  60  52 S13       29.82F
MONTGOMERY FLD SUNNY     79  61  53 S12       29.82F

$$

NORTH SAN DIEGO COUNTY

CITY           SKY/WX    TMP DP  RH WIND       PRES   REMARKS
CAMP PENDLETON   N/A     77  66  68 MISG      29.81S HAZE
OCEANSIDE AP   SUNNY     76  64  66 SW9       29.80S
OCEANSIDE HBR    N/A     74  70  87 CALM      29.84S
VISTA            N/A     80  67  63 SW6       29.77S
CARLSBAD       SUNNY     77  66  68 SW7       29.81S
DEL MAR          N/A     73  68  86 S3        29.83F
LA JOLLA SCRIP   N/A     78  65  63 SE5       29.79F
FALLBROOK        N/A     84  64  51 CALM      29.79S
ESCONDIDO        N/A     87  62  43 SW8       29.80F
SAN MARCOS       N/A     83  66  56 W8        29.77S
POWAY            N/A     87  63  44 SW3       29.79F

$$

EAST SAN DIEGO COUNTY

CITY           SKY/WX    TMP DP  RH WIND       PRES   REMARKS
RAMONA         SUNNY     87  60  40 W9        29.85S
SANTEE LAKES     N/A     80  66  61 SW6       29.79F
LA MESA          N/A     77  65  66 W3        29.74F
JAMUL            N/A     83  66  55 CALM      29.78F
DESCANSO N       N/A     91  51  25 CALM      29.64S
CAMPO            N/A     93  47  20 SW14      29.88S

$$

ORANGE COUNTY AND THE LOS ANGELES BASIN

CITY           SKY/WX    TMP DP  RH WIND       PRES   REMARKS
JOHN WAYNE AP  MOSUNNY   77  65  66 S16       29.80S
LAGUNA BEACH     N/A     81  71  71 S13       29.76S
LAKE FOREST FR   N/A     85  60  42 S1        29.68S
HUNTINGTON BCH   N/A     76  69  77 SE15      29.82F
LOS ALAMITOS   FAIR      79  66  65 S12       29.80S
FULLERTON      SUNNY     82  62  50 S8        29.79S
LONG BEACH     SUNNY     76  65  68 SE12G17   29.80F
L.A. AP        MOSUNNY   76  65  68 CALM      29.80F
L.A. DOWNTOWN  MOSUNNY   80  67  64 W5        29.79S

$$

THE INLAND EMPIRE

CITY           SKY/WX    TMP DP  RH WIND       PRES   REMARKS
CORONA         SUNNY     88  65  46 W15G24    29.76S
CHINO          MOSUNNY   90  61  37 W18       29.78F
ONTARIO        MOSUNNY   91  60  35 W15G24    29.79S
SAN BERNARDINO SUNNY     99  52  20 W10       29.80R HX  96
RIVERSIDE AP   SUNNY     91  59  33 W10G22    29.78S
MORENO VALLEY    N/A     99  53  21 W6        27.95S HX  97
MARCH ARB      SUNNY     95  58  28 NW9       29.82S
HORSETHIEF CYN   N/A     95  56  27 N10       29.75R
PERRIS           N/A     93  51  24 S8        29.80S
HEMET EAST       N/A     98  37  12 W7        29.64S
FRENCH VALLEY  FAIR      86  54  32 SW14G22   29.83F
TEMECULA         N/A     87  62  42 SW7       29.77S

$$

SAN BERNARDINO AND RIVERSIDE COUNTY MOUNTAINS

CITY           SKY/WX    TMP DP  RH WIND       PRES   REMARKS
BIG BEAR AP    SUNNY     81  39  22 W7        30.24F
PINE COVE        N/A     83  37  19 W3        29.74F

$$

SOUTHERN DESERT INCLUDING THE COACHELLA VALLEY

CITY           SKY/WX    TMP DP  RH WIND       PRES   REMARKS
PALM SPRINGS   SUNNY    107  61  22 SE7       29.70F HX 109
THOUSAND PALMS   N/A    109  61  21 SE7       29.65F HX 111
PALM DESERT      N/A    109  62  21 CALM        N/A  HX 111
THERMAL        SUNNY    108  60  21 SE9       29.62F HX 109
BLYTHE         SUNNY    111  59  18 S21       29.67F HX 112
IMPERIAL AP    CLOUDY   109  65  24 SE21      29.63F HX 114
EL CENTRO NAS  PTSUNNY  108  61  21 SE17      29.64F HX 110
YUMA AZ        SUNNY    105  61  23 S10       29.68  HX 106
MEXICALI       MOSUNNY  102  57  22 SE18      29.67F BLWGDUSTHX 101

$$

UPPER DESERT

CITY           SKY/WX    TMP DP  RH WIND       PRES   REMARKS
VICTORVILLE AP MOSUNNY  104  34   9 S21       29.87F HX  97
HESPERIA         N/A     99  46  16 W8        29.81F HX  95
PALMDALE       CLOUDY    97  32  10 W20       29.87S HAZE
LANCASTER      MOSUNNY  101  35  10 W21       29.86S HX  95
EDWARDS AFB    MOSUNNY  105  29   7 W24       29.80S HX  97
DAGGETT        SUNNY    110  32   7 VRB3      29.76F HX 102
29 PALMS N     PTSUNNY  106  46  13 SW17      29.85F HX 102
NEEDLES        PTSUNNY  114  52  13 SW13      29.68F HX 111

$$

REGIONAL REPORTS

CITY           SKY/WX    TMP DP  RH WIND       PRES   REMARKS
SANTA BARBARA  SUNNY     70  62  76 SE9       29.77R
SANDBERG       SUNNY     90  29  11 NW8       30.09S
LAS VEGAS NV   SUNNY    111  26   5 SW14G21   29.71F HX 102
PHOENIX AZ     MOSUNNY  110  53  15 W17G25    29.69F HX 108
TIJUANA        MOSUNNY   82  59  44 N13       29.84R
ENSENADA NW      N/A     70  32  24 W6        29.80F

$$

OFFSHORE ISLANDS

CITY           SKY/WX    TMP DP  RH WIND       PRES   REMARKS
CATALINA ARPT  SUNNY     79  61  53 CALM      29.86F
SAN NICOLAS IS SUNNY     80  56  43 NW9       29.80S

$$

MARINE AND OFFSHORE BUOY REPORTS

STATION/POSITION SKY/WX   TEMP    WIND        PRES    SWELL
                          AIR SEA DIR/SP/G            HT/PER/DIR
                          (F)     (DEG/KT/KT) (MB)    (FT/S/D)
TANNER BANKS               63 63  320/ 16/ 17 1008.7F   5/320/ 9
S CLEMENTE BASIN           68 70  150/ 10/ 12 1008.8F   7/180/15
SAN NICOLAS IS.               60                N/A     3/190/15
SO. S. ROSA ISLA           60 60  310/ 21/ 25 1008.3F   3/170/14
W. S. BARBARA CH           57 54  310/ 21/ 27 1007.8S   7/300/ 8
M. S. BARBARA CH                  210/ 12/ 14 1008.5S
S. MONICA BASIN            72 74   90/  4/  6 1008.7F   3/140/15
S PEDRO CHANNEL               72                N/A     2/180/15
OCEANSIDE OFFSHR              75                N/A     2/190/15
LA JOLLA 1                    77                N/A
SAN DIEGO BAY                 78                N/A
POINT LOMA SOUTH              73                N/A     3/180/15

$$




USA.gov is the U.S. government's official web portal to all federal, state and local government web resources and services.